Regional Weather Roundup
Issued by NWS

Home | Current Version | Previous Version | Graphics & Text | Print | Product List | Glossary On
Versions: 1 2 3 4 5 6 7 8 9 10 11 12 13 14 15 16 17 18 19 20 21 22 23 24 25 26 27 28 29 30 31 32 33 34 35 36 37 38 39 40 41 42 43 44 45 46 47 48 49 50
000
ASUS45 KTFX 270610
RWRMT
MONTANA REGIONAL WEATHER ROUNDUP
NATIONAL WEATHER SERVICE GREAT FALLS MT
1200 AM MDT WED JUL 27 2016

NOTE: "FAIR" INDICATES FEW OR NO CLOUDS BELOW 12000 FEET WITH NO
SIGNIFICANT WEATHER AND/OR OBSTRUCTIONS TO VISIBILITY.

MTZ001>007-043-270700-
WEST OF THE DIVIDE

CITY           SKY/WX    TMP DP  RH WIND       PRES   REMARKS
KALISPELL      CLEAR     61  51  70 N7        30.06S
MISSOULA       CLEAR     71  52  50 CALM      30.07R
BUTTE          CLEAR     55  41  59 SE3       30.23R
MULLAN PASS    PTCLDY    64  43  46 CALM      30.25S
ANACONDA         N/A     55  48  76 SW6       30.19R
DEER LODGE       N/A     63  48  59 CALM      30.19S
EUREKA           N/A     63  52  67 N3        30.09R
HAMILTON         N/A     64  52  63 CALM      30.11R
LIBBY            N/A     64  52  63 CALM      30.08S
PLAINS           N/A     67  49  52 CALM      30.06R
RONAN            N/A     64  55  72 N3        30.11S
$$

MTZ008-052>055-270700-
SOUTHWEST MONTANA

CITY           SKY/WX    TMP DP  RH WIND       PRES   REMARKS
BOZEMAN        CLOUDY    64  46  52 S9        30.14F
DILLON         CLEAR     54  44  69 VRB3      30.20S
W YELLOWSTONE  CLOUDY    55  37  50 S3        30.29S
ENNIS          CLEAR     52  43  71 E5        30.24F
THREE FORKS      N/A     61  20  20 CALM      30.12S
$$

MTZ009-010-012-014-046-048-049-054-270700-
EAST SLOPES AND CENTRAL MONTANA

CITY           SKY/WX    TMP DP  RH WIND       PRES   REMARKS
CUT BANK       MOCLDY    57  53  86 S7        30.16S
GREAT FALLS    CLOUDY    60  53  77 NE6       30.14S
MALMSTROM AFB  MOCLDY    60  56  85 W2        30.13S
HELENA         CLEAR     64  54  69 W7        30.11R
CHOTEAU          N/A     55  54  94 W3        30.19S
CONRAD           N/A     56  56 100 E1        30.17S
$$

MTZ011-013-016-021-045-047-050-051-270700-
NORTH CENTRAL MONTANA

CITY           SKY/WX    TMP DP  RH WIND       PRES   REMARKS
HAVRE          CLOUDY    64  59  83 SE6       30.05F
LEWISTOWN      PTCLDY    62  55  77 E7        30.16F
N BAR RANCH    CLOUDY    63  54  72 NW3G12    30.21R
CHINOOK          N/A     64  61  88 SE5       30.05F
$$

MTZ017>020-022>027-061-062-270700-
NORTHEAST MONTANA

CITY           SKY/WX    TMP DP  RH WIND       PRES   REMARKS
GLASGOW        LGT RAIN  68  56  65 SW18G25   30.11R
JORDAN           N/A     74  55  51 N26G45    30.11R
SIDNEY         CLEAR     64  59  83 N7        30.07F
WOLF POINT     CLOUDY    66  57  72 E8        30.07S
PLENTYWOOD       N/A     61  57  88 NE7       30.11F
POPLAR           N/A     64  57  77 NE8       30.08S
SCOBEY           N/A     59  50  72 NE3       30.10R
$$

MTZ028>42-056>058-270700-
SOUTHCENTRAL AND SOUTHEAST MONTANA

CITY           SKY/WX    TMP DP  RH WIND       PRES   REMARKS
BAKER          CLEAR     61  57  87 E9        30.10S
BILLINGS       CLOUDY    70  55  59 CALM      30.08R
LIVINGSTON     CLOUDY    66  47  50 W8        30.16S
MILES CITY     CLEAR     74  55  51 E8        30.04R
EKALAKA          N/A     64  57  78 SE5       30.09R
FORSYTH          N/A     75  52  43 CALM      30.07R
LAUREL           N/A     64  51  62 W1        30.06R
ROUNDUP          N/A     68  54  60 N10       30.02R
$$

REGIONAL REPORTS...DAKOTAS

CITY           SKY/WX    TMP DP  RH WIND       PRES   REMARKS
WILLISTON      CLEAR     65  56  72 N5        30.10R
MINOT          MOCLDY    64  60  87 N6        30.04F
DICKINSON      CLEAR     57  55  93 CALM      30.08R
BEACH            N/A     59  59 100 E7        30.13R
CROSBY           N/A     57  57 100 CALM      30.13R
WATFORD CITY     N/A    N/A N/A N/A MISG        N/A
BISMARCK       CLEAR     63  61  93 SE6       30.03S
GRAND FORKS    CLOUDY    68  62  81 CALM      30.02R
FARGO          CLOUDY    67  64  90 N5        29.96F
BUFFALO SD       N/A     63  60  90 E9        30.03F
RAPID CITY     CLEAR     66  58  75 NW12      30.09R
$$

REGIONAL REPORTS...WYOMING/IDAHO/WASHINGTON

CITY           SKY/WX    TMP DP  RH WIND       PRES   REMARKS
GILLETTE       CLEAR     63  55  75 S7        30.13R
SHERIDAN       PTCLDY    67  51  56 NE5       30.10R
BUFFALO WY     MOCLDY    70  48  45 W18G37    30.21R THUNDER
CODY           PTCLDY    70  41  35 NW5       30.17S
YELLOWSTONE LA   N/A     54  37  52 CALM      30.38S
IDAHO FALLS    CLEAR     63  44  50 N9        30.13R
SALMON         CLEAR     57  46  67 CALM      30.12S
BOISE          CLEAR     80  44  27 SW6       29.95R
SPOKANE        PTCLDY    71  54  54 N10       30.04R
$$

REGIONAL REPORTS...ALBERTA

CITY           SKY/WX    TMP DP  RH WIND       PRES   REMARKS
EDMONTON       PTCLDY    59  55  88 S3        30.07R
CALGARY        PTCLDY    64  57  77 NW5       30.13S
LETHBRIDGE     CLEAR     57  57 100 S6        30.12R
MEDICINE HAT   MOCLDY    61  61 100 N3        30.10R
WATERTON GATE    N/A     54  50  87 S2          N/A
CARDSTON         N/A     59  55  88 SW6         N/A
MILK RIVER       N/A     57  55  94 S3          N/A
$$

REGIONAL REPORTS...SASKATCHEWAN

CITY           SKY/WX    TMP DP  RH WIND       PRES   REMARKS
SWIFT CURRENT  CLEAR     59  55  88 E9        30.12S
REGINA         CLEAR     63  52  67 E7        30.14R
SASKATOON      CLEAR     63  54  72 SE7       30.15S
CYPRESS HILLS    N/A     57  54  88 NE8         N/A
VAL MARIE        N/A     64  57  77 W7          N/A
ROCKGLEN         N/A     59  55  88 E2          N/A
ASSINIBOIA       N/A     61  57  88 S6          N/A
$$



USA.gov is the U.S. government's official web portal to all federal, state and local government web resources and services.